Location: Auttagershofen
(48.1940°N, 10.0237°E)
Time: 22:11:27
(UTC+00:00)

Lacrosse 5 rocket - Pass Details

Date: 16 April 2026
Orbit: 390 x 471 km, 57.0° (Epoch: 19 May)

Event Time Altitude Azimuth Distance (km) Brightness Sun altitude
Rises 21:17:07 0° 298° (WNW) 2,290 5.4 -25.5°
Reaches altitude 10° 21:19:41 10° 320° (NW) 1,431 4.5 -25.7°
Maximum altitude 21:21:51 17° 3° (N) 1,094 3.4 -25.9°
Enters shadow 21:22:10 17° 11° (N) 1,103 3.4 -25.9°
